Oroville, CA

12:12 AM PST on December 03, 2016 (GMT -0800)
Oroville Municipal

Weather History for KOVE - May, 2013

Change the Weather History Date:

Thursday, May 23, 2013

  Actual Average Record
Temperature  
Mean Temperature 62 °F -  
Max Temperature 73 °F 85 °F 100 °F (1967)
Min Temperature 50 °F 55 °F 42 °F (1989)
Degree Days  
Heating Degree Days 4    
Growing Degree Days 12 (Base 50)    
Moisture  
Dew Point 35 °F    
Average Humidity 39    
Maximum Humidity 50    
Minimum Humidity 18    
Precipitation  
Precipitation 0.00 in - - ()
Sea Level Pressure  
Sea Level Pressure 29.95 in    
Wind  
Wind Speed 6 mph (SE)    
Max Wind Speed 13 mph    
Max Gust Speed -    
Visibility 10 miles    
Events      
Averages and records for this station are not official NWS values.
T = Trace of Precipitation, MM = Missing Value Source: NWS Daily Summary

Daily Weather History Graph

Daily Weather History Graph

Search for Another Location

Airport or City:

Trip Planner

Search our weather history database for the weather conditions in past years. The results will help you decide how hot, cold, wet, or windy it might be!

Date:

Astronomy

May. 23, 2013 Rise Set
Actual Time 5:45 AM PDT 8:21 PM PDT
Civil Twilight 5:14 AM PDT 8:52 PM PDT
Nautical Twilight 4:36 AM PDT 9:31 PM PDT
Astronomical Twilight 3:52 AM PDT 10:14 PM PDT
Moon 7:00 PM PDT (5/23) 4:34 AM PDT (5/23)
Length of Visible Light 15h 37m
Length of Day
14h 35m
Waxing Gibbous, 97% of the Moon is Illuminated
May 23
Waxing Gibbous
May 24
Full
May 31
Last Quarter
Jun 8
New
Jun 16
First Quarter

Hourly Weather History & Observations

Time (PDT) Temp. Dew Point Humidity Pressure Visibility Wind Dir Wind Speed Gust Speed Precip Events Conditions
12:53 AM 52.0 °F 32.0 °F 47% 29.87 in 10.0 mi ESE 5.8 mph - N/A   Clear
1:53 AM 52.0 °F 28.9 °F 41% 29.87 in 10.0 mi SE 5.8 mph - N/A   Clear
2:53 AM 51.1 °F 28.9 °F 43% 29.88 in 10.0 mi ESE 5.8 mph - N/A   Clear
3:53 AM 50.0 °F 30.0 °F 46% 29.89 in 10.0 mi SE 4.6 mph - N/A   Clear
4:53 AM 50.0 °F 30.9 °F 48% 29.90 in 10.0 mi ESE 5.8 mph - N/A   Clear
5:53 AM 50.0 °F 32.0 °F 50% 29.91 in 10.0 mi SSE 4.6 mph - N/A   Clear
6:53 AM 51.1 °F 33.1 °F 50% 29.93 in 10.0 mi ESE 8.1 mph - N/A   Clear
7:53 AM 54.0 °F 35.1 °F 49% 29.94 in 10.0 mi SSE 12.7 mph - N/A   Mostly Cloudy
8:53 AM 57.9 °F 36.0 °F 44% 29.96 in 10.0 mi SSE 6.9 mph - N/A   Clear
9:53 AM 60.1 °F 39.0 °F 46% 29.98 in 10.0 mi SE 6.9 mph - N/A   Clear
10:53 AM 63.0 °F 41.0 °F 45% 29.98 in 10.0 mi South 8.1 mph - N/A   Clear
11:02 AM 63.0 °F 41.0 °F 45% 29.97 in 1.8 mi South 6.9 mph - N/A   Haze
11:12 AM 63.0 °F 39.9 °F 43% 29.97 in 4.0 mi South 6.9 mph - N/A   Haze
11:53 AM 64.9 °F 41.0 °F 42% 29.99 in 10.0 mi Variable 4.6 mph - N/A   Clear
12:53 PM 66.9 °F 42.1 °F 40% 29.99 in 10.0 mi South 8.1 mph - N/A   Clear
1:53 PM 69.1 °F 41.0 °F 36% 29.99 in 10.0 mi Variable 3.5 mph - N/A   Clear
2:53 PM 71.1 °F 37.0 °F 29% 29.99 in 10.0 mi West 6.9 mph - N/A   Clear
3:53 PM 73.0 °F 27.0 °F 18% 29.97 in 10.0 mi Variable 4.6 mph - N/A   Clear
4:53 PM 73.0 °F 32.0 °F 22% 29.97 in 10.0 mi Variable 4.6 mph - N/A   Clear
5:53 PM 73.9 °F 28.9 °F 19% 29.95 in 10.0 mi Variable 3.5 mph - N/A   Clear
6:53 PM 72.0 °F 26.1 °F 18% 29.94 in 10.0 mi Calm Calm - N/A   Clear
7:53 PM 71.1 °F 30.9 °F 23% 29.95 in 10.0 mi SSW 4.6 mph - N/A   Clear
8:53 PM 66.0 °F 37.0 °F 34% 29.96 in 10.0 mi SSW 3.5 mph - N/A   Clear
9:53 PM 63.0 °F 36.0 °F 37% 29.97 in 10.0 mi ENE 4.6 mph - N/A   Clear
10:53 PM 61.0 °F 39.0 °F 44% 29.98 in 10.0 mi ENE 8.1 mph - N/A   Clear
11:53 PM 61.0 °F 39.9 °F 46% 29.96 in 10.0 mi ENE 10.4 mph - N/A   Clear